{"data":{"norad_id":64436,"intl_designator":"2025-129AA","name":"STARLINK-34396","alt_names":[],"object_type":"PAYLOAD","status":"ACTIVE","operator":null,"country":"US","launch_date":"2025-06-17","launch_site_code":"AFWTR","launch_vehicle":null,"mission":null,"orbit_class":"UNKNOWN","rcs_meters":null,"size_class":null,"mass_kg":null,"dimensions":null,"purposes":["comms"],"wikipedia_slug":null,"has_3d_model":false,"image_url":null,"decayed_at":null,"tle_current":{"epoch":"2026-09-20T12:24:51.072192Z","epoch_age_seconds":132772,"freshness":"FRESH","line1":"1 64436U 25129AA  26263.51725778  .00011136  00000+0  39120-3 0  9992","line2":"2 64436  69.9999 301.1022 0003628 273.7077  86.3683 15.29583670 70464","mean_motion":15.2958367,"eccentricity":0.0003628,"inclination_deg":69.9999,"raan_deg":301.1022,"arg_perigee_deg":273.7077,"mean_anomaly_deg":86.3683,"bstar":0.0003912,"rev_number":7046,"period_min":94.143264487127,"perigee_km":474.56887360461,"apogee_km":479.54300160013,"semimajor_km":6855.1929376024,"source":"CELESTRAK","updated_at":"2026-09-21T09:00:35.351495Z"}}}